KD7MPG-3 Weather Reports


time (UTC)temp
C
wind
direction
speed
KPH
gust
KPH
rain 1hr
cm
rain 24hr
cm
rain mn
cm
humidity
%
barometer
mb
20260901064153 15 157 1.6 4.8 0.00 0.00 0.00 84 1019.1
20260901063655 15 152 1.6 8.0 0.00 0.00 0.00 83 1019.0
20260901063153 15 153 1.6 8.0 0.00 0.00 0.00 83 1019.0
20260901062652 16 167 1.6 8.0 0.00 0.00 0.00 83 1019.0
20260901062151 16 231 0.0 3.2 0.00 0.00 0.00 82 1018.9
20260901061652 16 231 0.0 1.6 0.00 0.00 0.00 82 1018.9
20260901061152 16 232 1.6 3.2 0.00 0.00 0.00 82 1018.9
20260901060648 16 232 1.6 6.4 0.00 0.00 0.00 82 1018.9
20260901060148 16 231 1.6 8.0 0.00 0.00 0.00 82 1018.7
20260901055647 16 223 1.6 8.0 0.00 0.00 0.00 81 1018.7
20260901055148 16 219 1.6 6.4 0.00 0.00 0.00 81 1018.8
20260901054647 16 254 3.2 8.0 0.00 0.00 0.00 81 1018.7
20260901054149 16 215 3.2 8.0 0.00 0.00 0.00 81 1018.5
20260901053643 17 243 3.2 6.4 0.00 0.00 0.00 80 1018.4
20260901053145 17 182 1.6 6.4 0.00 0.00 0.00 80 1018.5
20260901052644 17 186 3.2 8.0 0.00 0.00 0.00 79 1018.4
20260901052144 17 208 3.2 8.0 0.00 0.00 0.00 78 1018.3
20260901051643 17 225 3.2 8.0 0.00 0.00 0.00 77 1018.3
20260901051145 17 163 3.2 9.7 0.00 0.00 0.00 77 1018.2
20260901050639 17 179 3.2 9.7 0.00 0.00 0.00 76 1018.2
20260901050139 17 258 3.2 9.7 0.00 0.00 0.00 75 1018.1
20260901045639 18 217 3.2 9.7 0.00 0.00 0.00 74 1017.9
20260901045139 18 205 3.2 8.0 0.00 0.00 0.00 73 1018.0
20260901044639 18 214 3.2 9.7 0.00 0.00 0.00 72 1018.0
20260901044137 18 194 3.2 9.7 0.00 0.00 0.00 71 1017.8
20260901043637 18 192 3.2 9.7 0.00 0.00 0.00 70 1017.8
20260901043138 19 171 3.2 9.7 0.00 0.00 0.00 69 1017.8
20260901042635 19 210 1.6 6.4 0.00 0.00 0.00 69 1017.7
20260901042133 20 227 3.2 11.3 0.00 0.00 0.00 68 1017.6
20260901041632 20 240 4.8 14.5 0.00 0.00 0.00 67 1017.4
20260901041131 20 255 4.8 14.5 0.00 0.00 0.00 67 1017.3
20260901040629 20 263 4.8 14.5 0.00 0.00 0.00 66 1017.2
20260901040127 20 275 3.2 9.7 0.00 0.00 0.00 66 1017.1
20260901035628 20 242 3.2 9.7 0.00 0.00 0.00 65 1017.1
20260901035127 20 212 4.8 11.3 0.00 0.00 0.00 64 1017.0
20260901034628 21 219 3.2 11.3 0.00 0.00 0.00 64 1017.0
20260901034123 21 232 3.2 9.7 0.00 0.00 0.00 63 1016.8
20260901033623 21 267 3.2 11.3 0.00 0.00 0.00 62 1016.7
20260901033121 21 260 4.8 11.3 0.00 0.00 0.00 62 1016.6
20260901032622 21 236 3.2 11.3 0.00 0.00 0.00 61 1016.5
20260901032121 21 275 3.2 8.0 0.00 0.00 0.00 61 1016.4
20260901031622 22 209 4.8 12.9 0.00 0.00 0.00 60 1016.3
20260901031117 22 250 4.8 12.9 0.00 0.00 0.00 59 1016.2
20260901030617 22 254 3.2 11.3 0.00 0.00 0.00 60 1016.2
20260901030115 22 277 3.2 11.3 0.00 0.00 0.00 59 1016.2
20260901025615 23 292 3.2 9.7 0.00 0.00 0.00 58 1016.1
20260901025115 23 305 3.2 9.7 0.00 0.00 0.00 58 1016.1
20260901024616 23 266 3.2 9.7 0.00 0.00 0.00 57 1016.1
20260901024113 23 277 3.2 6.4 0.00 0.00 0.00 57 1016.0
20260901023611 23 279 3.2 6.4 0.00 0.00 0.00 56 1016.0
20260901023112 24 283 3.2 6.4 0.00 0.00 0.00 55 1015.9
20260901022611 24 286 3.2 9.7 0.00 0.00 0.00 55 1016.0
20260901022114 24 279 6.4 17.7 0.00 0.00 0.00 54 1015.9
20260901021610 24 299 8.0 17.7 0.00 0.00 0.00 54 1016.0
20260901021107 25 252 6.4 16.1 0.00 0.00 0.00 54 1016.0
20260901020607 25 236 4.8 12.9 0.00 0.00 0.00 54 1015.9
20260901020108 25 243 6.4 19.3 0.00 0.00 0.00 53 1015.8
20260901015605 26 238 6.4 19.3 0.00 0.00 0.00 52 1015.7
20260901015103 26 268 4.8 11.3 0.00 0.00 0.00 52 1015.7
20260901014604 26 263 4.8 12.9 0.00 0.00 0.00 51 1015.7
20260901014058 27 0 6.4 16.1 0.00 0.00 0.00 50 1015.5
20260901013557 27 346 8.0 16.1 0.00 0.00 0.00 49 1015.6
20260901013057 28 305 8.0 17.7 0.00 0.00 0.00 48 1015.5
20260901012557 29 255 4.8 17.7 0.00 0.00 0.00 46 1015.6
20260901012057 30 257 4.8 14.5 0.00 0.00 0.00 45 1015.6
20260901011558 30 216 4.8 9.7 0.00 0.00 0.00 43 1015.5
20260901011053 31 250 3.2 9.7 0.00 0.00 0.00 41 1015.5
20260901010553 31 246 1.6 6.4 0.00 0.00 0.00 40 1015.6
20260901010054 31 241 1.6 6.4 0.00 0.00 0.00 40 1015.6
20260901005553 31 269 1.6 6.4 0.00 0.00 0.00 39 1015.6
20260901005051 30 144 1.6 6.4 0.00 0.00 0.00 41 1015.6
20260901004551 30 121 0.0 4.8 0.00 0.00 0.00 39 1015.7
20260901004045 30 194 0.0 3.2 0.00 0.00 0.00 40 1015.7
20260901003545 30 265 1.6 11.3 0.00 0.00 0.00 40 1015.9
20260901003045 30 265 1.6 11.3 0.00 0.00 0.00 39 1015.8
20260901002546 30 200 1.6 3.2 0.00 0.00 0.00 40 1015.8
20260901002044 30 201 1.6 6.4 0.00 0.00 0.00 40 1015.9
20260901001545 31 201 1.6 8.0 0.00 0.00 0.00 41 1015.9
20260901001042 31 168 1.6 8.0 0.00 0.00 0.00 41 1015.9
20260901000541 31 131 1.6 6.4 0.00 0.00 0.00 42 1015.9
20260901000044 31 131 1.6 6.4 0.00 0.00 0.00 43 1015.8
20260831235541 31 155 1.6 4.8 0.00 0.00 0.00 42 1015.9
20260831235039 31 127 1.6 4.8 0.00 0.00 0.00 42 1015.9
20260831234539 31 99 1.6 6.4 0.00 0.00 0.00 42 1016.0
20260831234034 31 70 3.2 6.4 0.00 0.00 0.00 42 1016.0
20260831233533 31 78 3.2 8.0 0.00 0.00 0.00 43 1016.1
20260831233033 30 51 1.6 9.7 0.00 0.00 0.00 43 1016.1
20260831232533 31 80 1.6 9.7 0.00 0.00 0.00 42 1016.1
20260831232032 30 164 1.6 9.7 0.00 0.00 0.00 43 1016.1
20260831231534 30 146 1.6 9.7 0.00 0.00 0.00 46 1016.2
20260831231026 30 95 1.6 9.7 0.00 0.00 0.00 46 1016.2
20260831230527 30 101 3.2 9.7 0.00 0.00 0.00 47 1016.2
20260831230027 29 101 3.2 6.4 0.00 0.00 0.00 47 1016.2
20260831225527 29 324 3.2 6.4 0.00 0.00 0.00 47 1016.3
20260831225027 28 232 3.2 8.0 0.00 0.00 0.00 47 1016.3
20260831224528 28 197 3.2 9.7 0.00 0.00 0.00 49 1016.4
20260831224023 28 276 3.2 9.7 0.00 0.00 0.00 48 1016.3
20260831223523 28 274 3.2 6.4 0.00 0.00 0.00 47 1016.5
20260831223024 28 300 3.2 8.0 0.00 0.00 0.00 48 1016.5
20260831222527 28 341 3.2 9.7 0.00 0.00 0.00 48 1016.5
20260831222021 28 305 3.2 9.7 0.00 0.00 0.00 48 1016.5
20260831221522 28 145 1.6 8.0 0.00 0.00 0.00 50 1016.4
20260831221017 28 165 3.2 8.0 0.00 0.00 0.00 52 1016.5
20260831220517 27 211 3.2 9.7 0.00 0.00 0.00 49 1016.7
20260831220014 27 267 3.2 9.7 0.00 0.00 0.00 50 1016.6
20260831215515 27 229 3.2 9.7 0.00 0.00 0.00 50 1016.8
20260831215015 27 226 1.6 6.4 0.00 0.00 0.00 50 1016.7
20260831214515 27 113 1.6 6.4 0.00 0.00 0.00 50 1016.8
20260831214010 27 313 1.6 4.8 0.00 0.00 0.00 52 1017.0
20260831213511 27 315 1.6 4.8 0.00 0.00 0.00 51 1017.0
20260831213011 27 319 1.6 6.4 0.00 0.00 0.00 52 1017.2
20260831212511 26 323 1.6 6.4 0.00 0.00 0.00 53 1017.3
20260831212009 26 200 1.6 6.4 0.00 0.00 0.00 53 1017.3
20260831211508 26 319 1.6 8.0 0.00 0.00 0.00 52 1017.2
20260831211004 26 290 1.6 8.0 0.00 0.00 0.00 53 1017.2
20260831210503 26 298 1.6 6.4 0.00 0.00 0.00 56 1017.4
20260831210003 26 299 1.6 6.4 0.00 0.00 0.00 55 1017.4
20260831205504 26 0 1.6 8.0 0.00 0.00 0.00 55 1017.4
20260831205002 25 70 1.6 8.0 0.00 0.00 0.00 56 1017.4
20260831204503 25 61 1.6 4.8 0.00 0.00 0.00 58 1017.5
20260831204004 25 63 1.6 6.4 0.00 0.00 0.00 59 1017.5
20260831203459 25 28 3.2 9.7 0.00 0.00 0.00 57 1017.6
20260831202958 24 329 3.2 9.7 0.00 0.00 0.00 58 1017.7
20260831202458 24 311 1.6 4.8 0.00 0.00 0.00 58 1017.7
20260831201959 24 311 3.2 6.4 0.00 0.00 0.00 58 1017.8
20260831201459 24 343 1.6 6.4 0.00 0.00 0.00 59 1017.9
20260831200959 24 195 1.6 4.8 0.00 0.00 0.00 60 1017.8
20260831200455 23 196 3.2 9.7 0.00 0.00 0.00 61 1017.8
20260831195956 23 274 3.2 9.7 0.00 0.00 0.00 60 1017.9
20260831195455 23 12 3.2 9.7 0.00 0.00 0.00 60 1017.9
20260831194955 23 302 3.2 4.8 0.00 0.00 0.00 60 1018.0
20260831194454 23 317 3.2 6.4 0.00 0.00 0.00 61 1018.2
20260831193956 23 280 3.2 6.4 0.00 0.00 0.00 60 1018.3
20260831193451 23 277 3.2 6.4 0.00 0.00 0.00 61 1018.3
20260831192950 23 76 1.6 6.4 0.00 0.00 0.00 63 1018.3
20260831192452 23 71 1.6 6.4 0.00 0.00 0.00 64 1018.3
20260831191950 22 44 1.6 6.4 0.00 0.00 0.00 63 1018.5
20260831191452 22 135 1.6 8.0 0.00 0.00 0.00 64 1018.7
20260831190952 22 130 3.2 8.0 0.00 0.00 0.00 66 1018.7
20260831190446 22 132 3.2 6.4 0.00 0.00 0.00 66 1018.7
20260831185947 21 152 3.2 6.4 0.00 0.00 0.00 65 1018.9
20260831185447 21 202 3.2 8.0 0.00 0.00 0.00 66 1018.9
20260831184946 21 329 3.2 9.7 0.00 0.00 0.00 66 1019.0
20260831184446 21 324 3.2 9.7 0.00 0.00 0.00 66 1019.0
20260831183947 21 322 1.6 8.0 0.00 0.00 0.00 67 1019.1
20260831183446 21 15 1.6 6.4 0.00 0.00 0.00 67 1019.1
20260831182946 21 0 1.6 6.4 0.00 0.00 0.00 68 1019.2
20260831182447 21 275 3.2 6.4 0.00 0.00 0.00 68 1019.2
20260831181947 21 276 3.2 11.3 0.00 0.00 0.00 67 1019.1
20260831181446 21 275 1.6 11.3 0.00 0.00 0.00 68 1019.1
20260831180946 20 103 3.2 12.9 0.00 0.00 0.00 70 1019.2
20260831180441 20 109 4.8 12.9 0.00 0.00 0.00 69 1019.2
20260831175940 20 61 3.2 9.7 0.00 0.00 0.00 70 1019.2
20260831175441 20 42 1.6 6.4 0.00 0.00 0.00 71 1019.3
20260831174941 20 329 3.2 8.0 0.00 0.00 0.00 71 1019.5
20260831174440 20 305 3.2 9.7 0.00 0.00 0.00 71 1019.6
20260831173941 19 96 1.6 9.7 0.00 0.00 0.00 72 1019.6
20260831173438 19 67 1.6 8.0 0.00 0.00 0.00 72 1019.7
20260831172937 19 87 1.6 6.4 0.00 0.00 0.00 73 1019.8
20260831172437 18 76 1.6 6.4 0.00 0.00 0.00 75 1019.8
20260831171938 18 313 1.6 6.4 0.00 0.00 0.00 75 1019.8
20260831171434 18 109 3.2 6.4 0.00 0.00 0.00 75 1019.8
20260831170935 18 89 3.2 6.4 0.00 0.00 0.00 76 1019.8
20260831170432 18 49 1.6 6.4 0.00 0.00 0.00 76 1019.8
20260831165930 18 72 1.6 8.0 0.00 0.00 0.00 77 1019.9
20260831165429 17 72 1.6 8.0 0.00 0.00 0.00 77 1020.0
20260831164928 17 78 1.6 6.4 0.00 0.00 0.00 78 1020.0
20260831164428 17 76 3.2 6.4 0.00 0.00 0.00 80 1020.1
20260831163928 17 94 1.6 6.4 0.00 0.00 0.00 81 1020.2
20260831163422 16 98 1.6 6.4 0.00 0.00 0.00 82 1020.2
20260831162922 16 83 1.6 4.8 0.00 0.00 0.00 82 1020.2
20260831162422 16 84 1.6 4.8 0.00 0.00 0.00 83 1020.2
20260831161922 16 71 1.6 9.7 0.00 0.00 0.00 84 1020.3
20260831161422 15 70 1.6 9.7 0.00 0.00 0.00 84 1020.3
20260831160923 15 53 1.6 4.8 0.00 0.00 0.00 85 1020.4
20260831160417 15 79 1.6 4.8 0.00 0.00 0.00 86 1020.3
20260831155916 14 67 0.0 4.8 0.00 0.00 0.00 86 1020.3
20260831155416 14 71 0.0 4.8 0.00 0.00 0.00 87 1020.4
20260831154916 14 71 1.6 4.8 0.00 0.00 0.00 87 1020.3
20260831154416 13 71 3.2 6.4 0.00 0.00 0.00 87 1020.3
20260831153917 13 65 1.6 6.4 0.00 0.00 0.00 87 1020.4
20260831153413 13 26 1.6 4.8 0.00 0.00 0.00 88 1020.4
20260831152912 13 29 1.6 6.4 0.00 0.00 0.00 89 1020.3
20260831152414 13 350 0.0 6.4 0.00 0.00 0.00 89 1020.4
20260831151912 12 9 0.0 4.8 0.00 0.00 0.00 90 1020.3
20260831151409 12 5 0.0 0.0 0.00 0.00 0.00 90 1020.3
20260831150909 12 5 0.0 0.0 0.00 0.00 0.00 91 1020.3
20260831150409 12 9 0.0 0.0 0.00 0.00 0.00 91 1020.4
20260831145906 12 9 0.0 0.0 0.00 0.00 0.00 91 1020.5
20260831145407 11 5 0.0 0.0 0.00 0.00 0.00 92 1020.5
20260831144906 11 9 0.0 0.0 0.00 0.00 0.00 92 1020.5
20260831144403 11 9 0.0 0.0 0.00 0.00 0.00 92 1020.5
20260831143905 11 5 0.0 0.0 0.00 0.00 0.00 92 1020.5
20260831143359 10 10 0.0 0.0 0.00 0.00 0.00 92 1020.4
20260831142858 10 10 0.0 0.0 0.00 0.00 0.00 91 1020.4
20260831142358 10 9 0.0 0.0 0.00 0.00 0.00 91 1020.4
20260831141858 10 5 0.0 0.0 0.00 0.00 0.00 90 1020.3
20260831141358 10 5 0.0 0.0 0.00 0.00 0.00 90 1020.2
20260831140859 10 5 0.0 0.0 0.00 0.00 0.00 90 1020.3
20260831140352 10 5 0.0 0.0 0.00 0.00 0.00 90 1020.4
20260831135851 10 9 0.0 0.0 0.00 0.00 0.00 90 1020.3
20260831135352 10 9 0.0 0.0 0.00 0.00 0.00 90 1020.3
20260831134851 10 5 0.0 0.0 0.00 0.00 0.00 89 1020.4
20260831134352 10 11 0.0 0.0 0.00 0.00 0.00 89 1020.4
20260831133851 10 5 0.0 0.0 0.00 0.00 0.00 89 1020.4
20260831133349 10 5 0.0 0.0 0.00 0.00 0.00 89 1020.5
20260831132848 10 5 0.0 0.0 0.00 0.00 0.00 89 1020.5
20260831132345 10 9 0.0 0.0 0.00 0.00 0.00 89 1020.5
20260831131846 10 9 0.0 0.0 0.00 0.00 0.00 89 1020.5
20260831131346 10 5 0.0 0.0 0.00 0.00 0.00 89 1020.5
20260831130847 10 9 0.0 0.0 0.00 0.00 0.00 89 1020.5
20260831130339 11 5 0.0 0.0 0.00 0.00 0.00 88 1020.5
20260831125840 11 9 0.0 0.0 0.00 0.00 0.00 89 1020.5
20260831125346 11 9 0.0 0.0 0.00 0.00 0.00 89 1020.5
20260831124840 11 11 0.0 0.0 0.00 0.00 0.00 88 1020.6
20260831124338 11 9 0.0 0.0 0.00 0.00 0.00 88 1020.5
20260831123839 11 5 0.0 0.0 0.00 0.00 0.00 88 1020.6
20260831123333 11 5 0.0 0.0 0.00 0.00 0.00 88 1020.6
20260831122831 11 10 0.0 0.0 0.00 0.00 0.00 88 1020.6
20260831122328 12 5 0.0 0.0 0.00 0.00 0.00 87 1020.7
20260831121826 12 5 0.0 0.0 0.00 0.00 0.00 87 1020.7
20260831121331 12 5 0.0 0.0 0.00 0.00 0.00 87 1020.7
20260831120821 12 11 0.0 0.0 0.00 0.00 0.00 87 1020.7
20260831120319 12 10 0.0 0.0 0.00 0.00 0.00 87 1020.6
20260831115820 12 10 0.0 0.0 0.00 0.00 0.00 87 1020.7
20260831115320 12 9 0.0 0.0 0.00 0.00 0.00 87 1020.6
20260831114820 12 5 0.0 0.0 0.00 0.00 0.00 87 1020.7
20260831114321 13 5 0.0 0.0 0.00 0.00 0.00 87 1020.8
20260831113817 13 10 0.0 0.0 0.00 0.00 0.00 87 1020.7
20260831113315 13 5 0.0 1.6 0.00 0.00 0.00 87 1020.9
20260831112813 13 10 0.0 1.6 0.00 0.00 0.00 87 1020.8
20260831112312 13 5 0.0 0.0 0.00 0.00 0.00 87 1020.8
20260831111810 13 9 0.0 1.6 0.00 0.00 0.00 87 1021.0
20260831111309 13 5 0.0 3.2 0.00 0.00 0.00 87 1021.0
20260831110808 13 5 0.0 3.2 0.00 0.00 0.00 87 1020.9
20260831110309 13 5 0.0 3.2 0.00 0.00 0.00 87 1020.9
20260831105807 13 5 0.0 1.6 0.00 0.00 0.00 87 1020.9
20260831105306 13 9 0.0 1.6 0.00 0.00 0.00 87 1021.1
20260831104806 13 9 0.0 1.6 0.00 0.00 0.00 87 1020.9
20260831104305 13 10 0.0 3.2 0.00 0.00 0.00 87 1021.0
20260831103806 13 10 0.0 3.2 0.00 0.00 0.00 87 1021.0
20260831103301 12 5 0.0 1.6 0.00 0.00 0.00 87 1021.1
20260831102802 12 5 0.0 1.6 0.00 0.00 0.00 87 1021.0
20260831102305 12 5 0.0 1.6 0.00 0.00 0.00 88 1021.1
20260831101802 12 9 0.0 1.6 0.00 0.00 0.00 88 1021.1
20260831101302 12 5 0.0 1.6 0.00 0.00 0.00 88 1021.2
20260831100802 12 5 0.0 1.6 0.00 0.00 0.00 88 1021.2
20260831100257 12 5 0.0 0.0 0.00 0.00 0.00 87 1021.2
20260831095759 12 5 0.0 0.0 0.00 0.00 0.00 86 1021.3
20260831095259 12 11 0.0 0.0 0.00 0.00 0.00 86 1021.5
20260831094758 12 5 0.0 0.0 0.00 0.00 0.00 85 1021.4
20260831094257 12 5 0.0 0.0 0.00 0.00 0.00 85 1021.6
20260831093759 13 5 0.0 0.0 0.00 0.00 0.00 85 1021.5
20260831093255 13 9 0.0 0.0 0.00 0.00 0.00 85 1021.6
20260831092754 13 5 0.0 0.0 0.00 0.00 0.00 84 1021.7
20260831092254 13 5 0.0 0.0 0.00 0.00 0.00 84 1021.6
20260831091753 13 5 0.0 0.0 0.00 0.00 0.00 84 1021.8
20260831091253 13 5 0.0 0.0 0.00 0.00 0.00 84 1021.9
20260831090754 13 11 0.0 0.0 0.00 0.00 0.00 84 1021.9
20260831090251 14 9 0.0 0.0 0.00 0.00 0.00 83 1022.0
20260831085749 14 9 0.0 0.0 0.00 0.00 0.00 82 1022.0
20260831085247 14 9 0.0 0.0 0.00 0.00 0.00 82 1022.1
20260831084747 15 5 0.0 1.6 0.00 0.00 0.00 82 1022.0
20260831084246 15 5 0.0 1.6 0.00 0.00 0.00 82 1022.1
20260831083743 15 5 0.0 1.6 0.00 0.00 0.00 82 1022.1
20260831083241 15 9 0.0 1.6 0.00 0.00 0.00 82 1022.2
20260831082741 15 5 0.0 4.8 0.00 0.00 0.00 82 1022.1
20260831082241 15 5 0.0 4.8 0.00 0.00 0.00 82 1022.1
20260831081739 15 9 0.0 4.8 0.00 0.00 0.00 81 1022.2
20260831081240 15 9 1.6 4.8 0.00 0.00 0.00 81 1022.1
20260831080733 15 5 1.6 4.8 0.00 0.00 0.00 81 1022.2
20260831080233 15 11 1.6 4.8 0.00 0.00 0.00 81 1022.4
20260831075734 15 9 0.0 3.2 0.00 0.00 0.00 80 1022.4
20260831075234 15 9 0.0 4.8 0.00 0.00 0.00 80 1022.5
20260831074733 15 10 0.0 4.8 0.00 0.00 0.00 80 1022.4
20260831074234 15 5 0.0 4.8 0.00 0.00 0.00 80 1022.5
20260831073728 15 16 1.6 4.8 0.00 0.00 0.00 80 1022.4
20260831073227 16 16 1.6 4.8 0.00 0.00 0.00 80 1022.6
20260831072724 16 22 1.6 3.2 0.00 0.00 0.00 79 1022.7
20260831072221 16 22 1.6 3.2 0.00 0.00 0.00 79 1022.7
20260831071722 16 22 0.0 3.2 0.00 0.00 0.00 79 1022.7
20260831071217 16 22 0.0 3.2 0.00 0.00 0.00 78 1022.8
20260831070717 16 24 0.0 3.2 0.00 0.00 0.00 78 1022.9
20260831070219 16 24 0.0 3.2 0.00 0.00 0.00 78 1022.9
20260831065715 16 24 1.6 4.8 0.00 0.00 0.00 77 1022.9
20260831065216 16 25 1.6 4.8 0.00 0.00 0.00 77 1023.0
20260831064716 16 23 1.6 4.8 0.00 0.00 0.00 77 1023.1